Reading, PA

4:13 AM EST on February 10, 2016 (GMT -0500)
Reading Regional-Spaatz

Weather History for KRDG - August, 2013

Change the Weather History Date:

Sunday, August 18, 2013

  Actual Average Record
Temperature  
Mean Temperature 68 °F 73 °F  
Max Temperature 72 °F 83 °F 96 °F (2002)
Min Temperature 63 °F 63 °F 44 °F (1981)
Degree Days  
Heating Degree Days 0 0  
Month to date heating degree days 0 0  
Since 1 June heating degree days 2 25  
Since 1 July heating degree days 0 1  
Cooling Degree Days 3 8  
Month to date cooling degree days 118 158  
Year to date cooling degree days 867 710  
Since 1 June cooling degree days 768 650  
Growing Degree Days 18 (Base 50)    
Moisture  
Dew Point 62 °F    
Average Humidity 81    
Maximum Humidity 93    
Minimum Humidity 68    
Precipitation  
Precipitation 0.05 in 0.13 in 3.23 in (1955)
Month to date precipitation 3.55 2.09  
Year to date precipitation 28.22 27.41  
Sea Level Pressure  
Sea Level Pressure 30.23 in    
Wind  
Wind Speed 2 mph (NW)    
Max Wind Speed 7 mph    
Max Gust Speed 8 mph    
Visibility 10 miles    
Events Rain    
T = Trace of Precipitation, MM = Missing Value Source: NWS Daily Summary

Daily Weather History Graph

Daily Weather History Graph

Search for Another Location

Airport or City:

Trip Planner

Search our weather history database for the weather conditions in past years. The results will help you decide how hot, cold, wet, or windy it might be!

Date:

Astronomy

Aug. 18, 2013 Rise Set
Actual Time 6:17 AM EDT 7:56 PM EDT
Civil Twilight 5:48 AM EDT 8:25 PM EDT
Nautical Twilight 5:13 AM EDT 9:00 PM EDT
Astronomical Twilight 4:36 AM EDT 9:37 PM EDT
Moon 6:01 PM EDT (8/18) 3:24 AM EDT (8/18)
Length of Visible Light 14h 36m
Length of Day
13h 38m
Waxing Gibbous, 92% of the Moon is Illuminated
Aug 18
Waxing Gibbous
Aug 20
Full
Aug 28
Last Quarter
Sep 5
New
Sep 12
First Quarter

Hourly Weather History & Observations

Time (EDT) Temp. Dew Point Humidity Pressure Visibility Wind Dir Wind Speed Gust Speed Precip Events Conditions
12:54 AM 66.0 °F 61.0 °F 84% 30.26 in 10.0 mi Calm Calm - N/A   Clear
1:54 AM 66.0 °F 61.0 °F 84% 30.25 in 10.0 mi Calm Calm - N/A   Clear
2:54 AM 64.9 °F 62.1 °F 90% 30.25 in 10.0 mi Calm Calm - N/A   Clear
3:54 AM 64.9 °F 61.0 °F 87% 30.24 in 10.0 mi NNW 3.5 mph - N/A   Clear
4:54 AM 64.0 °F 61.0 °F 90% 30.23 in 10.0 mi Calm Calm - N/A   Clear
5:54 AM 64.0 °F 61.0 °F 90% 30.25 in 10.0 mi Calm Calm - N/A   Clear
6:54 AM 64.0 °F 61.0 °F 90% 30.25 in 10.0 mi Calm Calm - N/A   Partly Cloudy
7:54 AM 64.9 °F 61.0 °F 87% 30.27 in 10.0 mi Calm Calm - N/A   Scattered Clouds
8:54 AM 64.9 °F 62.1 °F 90% 30.27 in 10.0 mi Calm Calm - 0.01 in Rain Light Rain
9:54 AM 66.9 °F 62.1 °F 84% 30.27 in 10.0 mi North 3.5 mph - 0.00 in Rain Light Rain
10:54 AM 70.0 °F 63.0 °F 78% 30.28 in 10.0 mi NNW 3.5 mph - 0.01 in   Scattered Clouds
11:54 AM 69.1 °F 64.0 °F 84% 30.27 in 10.0 mi North 5.8 mph - 0.00 in Rain Light Rain
12:54 PM 70.0 °F 62.1 °F 76% 30.26 in 10.0 mi North 3.5 mph - 0.00 in Rain Light Rain
1:54 PM 70.0 °F 61.0 °F 73% 30.23 in 10.0 mi Calm Calm - 0.01 in Rain Light Rain
2:54 PM 70.0 °F 61.0 °F 73% 30.22 in 10.0 mi NE 3.5 mph - 0.00 in Rain Light Rain
3:54 PM 70.0 °F 62.1 °F 76% 30.20 in 10.0 mi NW 4.6 mph - 0.02 in Rain Light Rain
4:54 PM 71.1 °F 61.0 °F 70% 30.19 in 10.0 mi Calm Calm - 0.00 in   Partly Cloudy
5:54 PM 72.0 °F 62.1 °F 71% 30.19 in 10.0 mi West 3.5 mph - 0.00 in   Clear
6:54 PM 71.1 °F 61.0 °F 70% 30.19 in 10.0 mi West 4.6 mph - N/A   Clear
7:54 PM 69.1 °F 62.1 °F 78% 30.18 in 10.0 mi SW 3.5 mph - N/A   Clear
8:54 PM 68.0 °F 61.0 °F 78% 30.17 in 10.0 mi Calm Calm - N/A   Partly Cloudy
9:54 PM 66.0 °F 62.1 °F 87% 30.18 in 10.0 mi Calm Calm - N/A   Clear
10:54 PM 66.0 °F 60.1 °F 81% 30.18 in 10.0 mi Calm Calm - N/A   Clear
11:54 PM 64.0 °F 61.0 °F 90% 30.18 in 10.0 mi Calm Calm - N/A   Clear